"read_dt","SO2 (ppb)","flags","PMT voltage (V)","lamp voltage (V)","lamp intensity (Hz)","internal temp (C)","react chamber temp (C)","sample flow (l/min)","pres (mmHg)","SO2 bkg (ppb)","SO2 coefficient"
2017-05-10 00:00:00,1612E-3,5C000400,-0724,0840,11160,027.7,045.5,0.221,752.0,01.17,0.508
2017-05-10 00:01:00,1450E-3,5C000400,-0724,0840,12350,027.8,045.5,0.221,752.0,01.17,0.508
2017-05-10 00:02:00,1760E-3,5C000400,-0724,0836,11256,027.8,045.5,0.221,752.0,01.17,0.508
2017-05-10 00:03:00,1562E-3,5C000400,-0724,0849,12679,027.7,045.4,0.221,752.0,01.17,0.508
2017-05-10 00:04:00,1707E-3,5C000400,-0724,0843,8885,027.7,045.4,0.221,752.0,01.17,0.508
2017-05-10 00:05:00,1551E-3,5C000400,-0724,0843,12339,027.7,045.4,0.222,752.0,01.17,0.508
2017-05-10 00:06:00,1770E-3,5C000400,-0724,0837,12248,027.7,045.5,0.221,752.0,01.17,0.508
2017-05-10 00:07:00,1726E-3,5C000400,-0724,0837,11084,027.8,045.4,0.221,752.0,01.17,0.508
2017-05-10 00:08:00,1797E-3,5C000400,-0724,0840,12293,027.7,045.4,0.221,752.0,01.17,0.508
2017-05-10 00:09:00,1744E-3,5C000400,-0724,0847,11392,027.7,045.4,0.222,752.0,01.17,0.508
2017-05-10 00:10:00,1419E-3,5C000400,-0724,0846,10184,027.7,045.4,0.222,752.0,01.17,0.508
2017-05-10 00:11:00,1588E-3,5C000400,-0724,0848,9898,027.7,045.4,0.222,752.0,01.17,0.508
2017-05-10 00:12:00,1498E-3,5C000400,-0724,0855,11846,027.7,045.4,0.222,752.0,01.17,0.508
2017-05-10 00:13:00,1516E-3,5C000400,-0724,0852,11725,027.7,045.4,0.222,752.0,01.17,0.508
2017-05-10 00:14:00,1523E-3,5C000400,-0724,0851,11496,027.7,045.4,0.221,752.0,01.17,0.508
2017-05-10 00:15:00,1511E-3,5C000400,-0724,0852,9366,027.7,045.4,0.222,752.0,01.17,0.508
2017-05-10 00:16:00,1378E-3,5C000410,-0724,0847,11439,027.7,045.5,0.221,752.0,01.17,0.508
2017-05-10 00:17:00,1508E-3,5C000400,-0724,0851,12391,027.7,045.4,0.222,752.0,01.17,0.508
2017-05-10 00:18:00,1362E-3,5C000410,-0724,0857,7986,027.6,045.4,0.222,752.0,01.17,0.508
2017-05-10 00:19:00,1483E-3,5C000410,-0724,0852,7925,027.6,045.4,0.222,752.0,01.17,0.508
2017-05-10 00:20:00,1464E-3,5C000400,-0724,0836,12234,027.7,045.4,0.222,752.1,01.17,0.508
2017-05-10 00:21:00,1814E-3,5C000400,-0724,0840,12461,027.7,045.5,0.222,752.1,01.17,0.508
2017-05-10 00:22:00,1633E-3,5C000400,-0724,0844,11183,027.6,045.5,0.222,752.1,01.17,0.508
2017-05-10 00:23:00,1530E-3,5C000400,-0724,0837,11140,027.6,045.4,0.222,752.0,01.17,0.508
2017-05-10 00:24:00,1718E-3,5C000400,-0724,0839,9890,027.7,045.4,0.222,752.1,01.17,0.508
2017-05-10 00:25:00,1543E-3,5C000400,-0724,0840,11255,027.7,045.4,0.222,752.1,01.17,0.508
2017-05-10 00:26:00,1539E-3,5C000400,-0724,0838,11145,027.7,045.4,0.222,752.1,01.17,0.508
2017-05-10 00:27:00,1585E-3,5C000400,-0724,0847,9923,027.7,045.5,0.222,752.1,01.17,0.508
2017-05-10 00:28:00,1662E-3,5C000400,-0724,0847,12812,027.6,045.5,0.222,752.1,01.17,0.508
2017-05-10 00:29:00,1621E-3,5C000400,-0724,0844,12599,027.7,045.4,0.222,752.1,01.17,0.508
2017-05-10 00:30:00,1475E-3,5C000400,-0724,0851,9046,027.7,045.4,0.222,752.1,01.17,0.508
2017-05-10 00:31:00,1739E-3,5C000400,-0724,0840,12362,027.7,045.4,0.222,752.1,01.17,0.508
2017-05-10 00:32:00,1711E-3,5C000400,-0724,0841,11259,027.7,045.5,0.222,752.1,01.17,0.508
2017-05-10 00:33:00,1477E-3,5C000410,-0724,0853,12996,027.6,045.5,0.222,752.2,01.17,0.508
2017-05-10 00:34:00,1612E-3,5C000400,-0724,0845,10252,027.7,045.4,0.222,752.2,01.17,0.508
2017-05-10 00:35:00,1465E-3,5C000400,-0724,0840,12387,027.7,045.4,0.222,752.2,01.17,0.508
2017-05-10 00:36:00,1766E-3,5C000400,-0724,0839,11179,027.6,045.4,0.222,752.2,01.17,0.508
2017-05-10 00:37:00,1590E-3,5C000400,-0724,0841,11109,027.6,045.4,0.222,752.2,01.17,0.508
2017-05-10 00:38:00,1487E-3,5C000400,-0724,0843,12669,027.6,045.5,0.222,752.2,01.17,0.508
2017-05-10 00:39:00,1582E-3,5C000400,-0724,0846,12636,027.7,045.4,0.221,752.2,01.17,0.508
2017-05-10 00:40:00,1616E-3,5C000400,-0724,0844,10105,027.6,045.4,0.222,752.2,01.17,0.508
2017-05-10 00:41:00,1630E-3,5C000410,-0724,0847,8919,027.6,045.4,0.221,752.3,01.17,0.508
2017-05-10 00:42:00,1465E-3,5C000410,-0724,0852,9102,027.6,045.5,0.222,752.2,01.17,0.508
2017-05-10 00:43:00,1476E-3,5C000410,-0724,0853,11703,027.7,045.4,0.221,752.2,01.17,0.508
2017-05-10 00:44:00,1396E-3,5C000410,-0724,0852,11651,027.7,045.4,0.222,752.2,01.17,0.508
2017-05-10 00:45:00,1657E-3,5C000410,-0724,0843,12552,027.6,045.4,0.221,752.3,01.17,0.508
2017-05-10 00:46:00,1676E-3,5C000400,-0724,0843,8842,027.7,045.4,0.222,752.3,01.17,0.508
2017-05-10 00:47:00,1328E-3,5C000400,-0724,0864,9601,027.7,045.4,0.222,752.2,01.17,0.508
2017-05-10 00:48:00,1283E-3,5C000400,-0724,0858,10623,027.6,045.4,0.222,752.2,01.17,0.508
2017-05-10 00:49:00,1227E-3,5C000400,-0724,0876,13687,027.7,045.4,0.222,752.3,01.17,0.508
2017-05-10 00:50:00,1320E-3,5C000410,-0724,0856,13156,027.6,045.5,0.222,752.3,01.17,0.508
2017-05-10 00:51:00,1266E-3,5C000410,-0724,0865,9546,027.6,045.5,0.222,752.3,01.17,0.508
2017-05-10 00:52:00,1352E-3,5C000400,-0724,0854,10518,027.7,045.4,0.222,752.3,01.17,0.508
2017-05-10 00:53:00,1525E-3,5C000400,-0724,0853,9135,027.8,045.4,0.222,752.3,01.17,0.508
2017-05-10 00:54:00,1206E-3,5C000400,-0724,0850,11518,027.9,045.5,0.222,752.3,01.17,0.508
2017-05-10 00:55:00,1686E-3,5C000400,-0724,0841,11054,028.1,045.5,0.222,752.3,01.17,0.508
2017-05-10 00:56:00,1558E-3,5C000400,-0724,0841,11320,028.2,045.5,0.221,752.3,01.17,0.508
2017-05-10 00:57:00,1526E-3,5C000400,-0724,0839,12282,028.2,045.5,0.221,752.3,01.17,0.508
2017-05-10 00:58:00,1683E-3,5C000400,-0724,0843,12398,028.2,045.5,0.221,752.3,01.17,0.508
2017-05-10 00:59:00,1572E-3,5C000400,-0724,0844,12404,028.2,045.5,0.221,752.3,01.17,0.508
2017-05-10 01:00:00,1623E-3,5C000400,-0724,0839,11192,028.2,045.4,0.221,752.3,01.17,0.508
2017-05-10 01:01:00,1488E-3,5C000400,-0724,0845,11517,028.0,045.4,0.221,752.3,01.17,0.508
2017-05-10 01:02:00,1555E-3,5C000400,-0724,0846,12399,027.9,045.4,0.221,752.3,01.17,0.508
2017-05-10 01:03:00,1458E-3,5C000400,-0724,0855,12617,027.9,045.4,0.221,752.4,01.17,0.508
2017-05-10 01:04:00,1556E-3,5C000400,-0724,0843,12327,027.8,045.4,0.221,752.4,01.17,0.508
2017-05-10 01:05:00,1608E-3,5C000400,-0724,0845,12473,027.8,045.4,0.221,752.4,01.17,0.508
2017-05-10 01:06:00,1633E-3,5C000400,-0724,0839,11144,027.8,045.4,0.221,752.4,01.17,0.508
2017-05-10 01:07:00,1407E-3,5C000400,-0724,0851,11649,027.8,045.5,0.221,752.4,01.17,0.508
2017-05-10 01:08:00,1317E-3,5C000400,-0724,0854,12915,027.8,045.5,0.221,752.4,01.17,0.508
2017-05-10 01:09:00,1485E-3,5C000400,-0724,0846,8979,027.8,045.5,0.221,752.4,01.17,0.508
2017-05-10 01:10:00,1475E-3,5C000400,-0724,0844,11403,027.8,045.5,0.221,752.3,01.17,0.508
2017-05-10 01:11:00,1514E-3,5C000400,-0724,0841,12366,027.7,045.5,0.222,752.3,01.17,0.508
2017-05-10 01:12:00,1573E-3,5C000400,-0724,0840,12105,027.7,045.4,0.222,752.3,01.17,0.508
2017-05-10 01:13:00,1738E-3,5C000400,-0724,0838,12235,027.7,045.5,0.222,752.3,01.17,0.508
2017-05-10 01:14:00,1319E-3,5C000400,-0724,0850,12602,027.7,045.4,0.221,752.4,01.17,0.508
2017-05-10 01:15:00,1562E-3,5C000400,-0724,0853,11435,027.7,045.4,0.222,752.4,01.17,0.508
2017-05-10 01:16:00,1245E-3,5C000400,-0724,0864,12089,027.7,045.4,0.221,752.4,01.17,0.508
2017-05-10 01:17:00,1438E-3,5C000410,-0724,0862,9263,027.7,045.5,0.222,752.4,01.17,0.508
2017-05-10 01:18:00,1062E-3,5C000410,-0724,0892,7260,027.6,045.4,0.221,752.4,01.17,0.508
2017-05-10 01:19:00,1071E-3,5C000410,-0724,0888,7385,027.7,045.5,0.222,752.4,01.17,0.508
2017-05-10 01:20:00,1289E-3,5C000410,-0724,0869,10985,027.7,045.4,0.222,752.4,01.17,0.508
2017-05-10 01:21:00,1455E-3,5C000400,-0724,0851,11685,027.6,045.4,0.222,752.4,01.17,0.508
2017-05-10 01:22:00,1183E-3,5C000400,-0724,0856,13225,027.6,045.4,0.222,752.4,01.17,0.508
2017-05-10 01:23:00,1258E-3,5C000410,-0724,0876,14054,027.6,045.5,0.222,752.5,01.17,0.508
2017-05-10 01:24:00,9971E-4,5C000410,-0724,0879,5600,027.6,045.4,0.222,752.5,01.17,0.508
2017-05-10 01:25:00,1255E-3,5C000410,-0724,0865,5608,027.6,045.4,0.221,752.5,01.17,0.508
2017-05-10 01:26:00,1254E-3,5C000400,-0724,0861,9322,027.6,045.4,0.222,752.5,01.17,0.508
2017-05-10 01:27:00,1495E-3,5C000400,-0724,0848,7936,027.6,045.4,0.221,752.5,01.17,0.508
2017-05-10 01:28:00,1446E-3,5C000400,-0724,0852,11810,027.6,045.4,0.222,752.5,01.17,0.508
2017-05-10 01:29:00,1498E-3,5C000400,-0724,0849,11498,027.6,045.4,0.221,752.5,01.17,0.508
2017-05-10 01:30:00,1505E-3,5C000400,-0724,0842,11213,027.6,045.4,0.222,752.5,01.17,0.508
2017-05-10 01:31:00,1730E-3,5C000400,-0724,0841,12339,027.6,045.4,0.221,752.5,01.17,0.508
2017-05-10 01:32:00,1670E-3,5C000400,-0724,0838,12200,027.6,045.4,0.222,752.5,01.17,0.508
2017-05-10 01:33:00,1611E-3,5C000400,-0724,0840,11154,027.6,045.4,0.222,752.5,01.17,0.508
2017-05-10 01:34:00,1539E-3,5C000400,-0724,0837,9917,027.6,045.4,0.222,752.5,01.17,0.508
2017-05-10 01:35:00,1624E-3,5C000400,-0724,0842,11232,027.6,045.4,0.222,752.5,01.17,0.508
2017-05-10 01:36:00,1580E-3,5C000410,-0724,0842,8789,027.5,045.5,0.222,752.5,01.17,0.508
2017-05-10 01:37:00,1634E-3,5C000400,-0724,0839,12268,027.6,045.4,0.222,752.5,01.17,0.508
2017-05-10 01:38:00,1487E-3,5C000400,-0724,0841,11250,027.6,045.5,0.222,752.5,01.17,0.508
2017-05-10 01:39:00,1565E-3,5C000400,-0724,0845,12727,027.5,045.5,0.222,752.5,01.17,0.508
2017-05-10 01:40:00,1753E-3,5C000400,-0724,0837,12359,027.5,045.4,0.221,752.5,01.17,0.508
2017-05-10 01:41:00,1678E-3,5C000400,-0724,0844,12333,027.5,045.4,0.222,752.5,01.17,0.508
2017-05-10 01:42:00,1652E-3,5C000400,-0724,0839,12190,027.5,045.4,0.222,752.5,01.17,0.508
2017-05-10 01:43:00,1580E-3,5C000400,-0724,0841,11289,027.6,045.4,0.222,752.5,01.17,0.508
2017-05-10 01:44:00,1577E-3,5C000410,-0724,0840,9951,027.5,045.5,0.222,752.5,01.17,0.508
2017-05-10 01:45:00,1706E-3,5C000400,-0724,0842,11376,027.5,045.4,0.222,752.5,01.17,0.508
2017-05-10 01:46:00,1535E-3,5C000400,-0724,0840,12480,027.5,045.5,0.222,752.5,01.17,0.508
2017-05-10 01:47:00,1644E-3,5C000400,-0724,0839,11088,027.5,045.4,0.222,752.5,01.17,0.508
2017-05-10 01:48:00,1690E-3,5C000400,-0724,0837,11007,027.5,045.4,0.222,752.5,01.17,0.508
2017-05-10 01:49:00,1638E-3,5C000400,-0724,0840,12367,027.5,045.4,0.222,752.5,01.17,0.508
2017-05-10 01:50:00,1556E-3,5C000410,-0724,0857,10718,027.5,045.4,0.222,752.5,01.17,0.508
2017-05-10 01:51:00,1295E-3,5C000400,-0724,0863,12802,027.5,045.4,0.222,752.5,01.17,0.508
2017-05-10 01:52:00,1498E-3,5C000400,-0724,0845,10332,027.5,045.4,0.222,752.5,01.17,0.508
2017-05-10 01:53:00,1712E-3,5C000400,-0724,0836,12126,027.5,045.4,0.222,752.5,01.17,0.508
2017-05-10 01:54:00,1530E-3,5C000400,-0724,0847,12333,027.5,045.4,0.222,752.5,01.17,0.508
2017-05-10 01:55:00,1601E-3,5C000400,-0724,0839,12210,027.5,045.4,0.222,752.5,01.17,0.508
2017-05-10 01:56:00,1632E-3,5C000400,-0724,0846,12219,027.5,045.4,0.222,752.6,01.17,0.508
2017-05-10 01:57:00,1600E-3,5C000400,-0724,0841,11341,027.5,045.4,0.222,752.6,01.17,0.508
2017-05-10 01:58:00,1592E-3,5C000410,-0724,0843,9938,027.5,045.4,0.222,752.6,01.17,0.508
2017-05-10 01:59:00,1646E-3,5C000400,-0724,0843,10302,027.5,045.4,0.222,752.6,01.17,0.508
2017-05-10 02:00:00,1616E-3,5C000410,-0724,0839,12595,027.5,045.4,0.222,752.6,01.17,0.508
2017-05-10 02:01:00,1617E-3,5C000400,-0724,0841,9873,027.5,045.4,0.222,752.7,01.17,0.508
2017-05-10 02:02:00,1699E-3,5C000400,-0724,0839,12163,027.5,045.4,0.222,752.7,01.17,0.508
2017-05-10 02:03:00,1548E-3,5C000400,-0724,0848,9165,027.5,045.4,0.222,752.7,01.17,0.508
2017-05-10 02:04:00,1595E-3,5C000400,-0724,0844,12804,027.5,045.4,0.222,752.7,01.17,0.508
2017-05-10 02:05:00,1781E-3,5C000400,-0724,0841,12421,027.5,045.4,0.222,752.7,01.17,0.508
2017-05-10 02:06:00,1608E-3,5C000400,-0724,0848,12684,027.5,045.4,0.222,752.7,01.17,0.508
2017-05-10 02:07:00,1351E-3,5C000400,-0724,0852,7865,027.5,045.4,0.222,752.7,01.17,0.508
2017-05-10 02:08:00,1630E-3,5C000400,-0724,0851,11539,027.4,045.4,0.222,752.7,01.17,0.508
2017-05-10 02:09:00,1498E-3,5C000400,-0724,0860,10649,027.4,045.4,0.222,752.7,01.17,0.508
2017-05-10 02:10:00,1612E-3,5C000400,-0724,0844,12588,027.4,045.4,0.223,752.7,01.17,0.508
2017-05-10 02:11:00,1482E-3,5C000400,-0724,0839,12293,027.4,045.5,0.223,752.7,01.17,0.508
2017-05-10 02:12:00,1501E-3,5C000400,-0724,0841,10073,027.5,045.5,0.222,752.7,01.17,0.508
2017-05-10 02:13:00,1623E-3,5C000400,-0724,0844,10163,027.4,045.4,0.223,752.7,01.17,0.508
2017-05-10 02:14:00,1441E-3,5C000400,-0724,0856,10622,027.4,045.4,0.222,752.7,01.17,0.508
2017-05-10 02:15:00,1426E-3,5C000400,-0724,0849,11837,027.5,045.4,0.222,752.7,01.17,0.508
2017-05-10 02:16:00,1537E-3,5C000400,-0724,0851,11665,027.4,045.4,0.222,752.7,01.17,0.508
2017-05-10 02:17:00,1477E-3,5C000410,-0724,0853,9282,027.4,045.4,0.222,752.7,01.17,0.508
2017-05-10 02:18:00,1640E-3,5C000400,-0724,0836,12527,027.4,045.4,0.222,752.7,01.17,0.508
2017-05-10 02:19:00,1659E-3,5C000400,-0724,0843,12318,027.4,045.4,0.222,752.7,01.17,0.508
2017-05-10 02:20:00,1653E-3,5C000400,-0724,0849,8938,027.5,045.4,0.222,752.7,01.17,0.508
2017-05-10 02:21:00,1608E-3,5C000400,-0724,0838,9844,027.4,045.5,0.222,752.7,01.17,0.508
2017-05-10 02:22:00,1727E-3,5C000400,-0724,0842,11262,027.4,045.4,0.222,752.7,01.17,0.508
2017-05-10 02:23:00,1646E-3,5C000400,-0724,0846,10306,027.5,045.4,0.222,752.8,01.17,0.508
2017-05-10 02:24:00,1344E-3,5C000400,-0724,0858,9366,027.4,045.4,0.222,752.8,01.17,0.508
2017-05-10 02:25:00,1469E-3,5C000410,-0724,0852,10507,027.4,045.4,0.222,752.8,01.17,0.508
2017-05-10 02:26:00,1494E-3,5C000400,-0724,0856,10483,027.4,045.4,0.222,752.8,01.17,0.508
2017-05-10 02:27:00,1334E-3,5C000400,-0724,0857,10419,027.4,045.4,0.222,752.8,01.17,0.508
2017-05-10 02:28:00,1384E-3,5C000400,-0724,0859,11799,027.4,045.4,0.222,752.8,01.17,0.508
2017-05-10 02:29:00,1290E-3,5C000400,-0724,0862,8227,027.4,045.4,0.222,752.8,01.17,0.508
2017-05-10 02:30:00,1370E-3,5C000400,-0724,0859,9722,027.4,045.4,0.222,752.8,01.17,0.508
2017-05-10 02:31:00,1354E-3,5C000410,-0724,0849,9465,027.4,045.5,0.222,752.8,01.17,0.508
2017-05-10 02:32:00,1545E-3,5C000400,-0724,0844,11499,027.4,045.4,0.222,752.8,01.17,0.508
2017-05-10 02:33:00,1454E-3,5C000400,-0724,0845,11263,027.4,045.4,0.222,752.8,01.17,0.508
2017-05-10 02:34:00,1522E-3,5C000400,-0724,0855,13136,027.4,045.4,0.222,752.8,01.17,0.508
2017-05-10 02:35:00,1435E-3,5C000400,-0724,0850,10149,027.4,045.4,0.222,752.8,01.17,0.508
2017-05-10 02:36:00,1581E-3,5C000410,-0724,0844,9037,027.4,045.4,0.222,752.8,01.17,0.508
2017-05-10 02:37:00,1492E-3,5C000400,-0724,0846,11647,027.4,045.4,0.222,752.8,01.17,0.508
2017-05-10 02:38:00,1566E-3,5C000400,-0724,0851,12715,027.4,045.5,0.222,752.9,01.17,0.508
2017-05-10 02:39:00,1542E-3,5C000400,-0724,0850,11555,027.4,045.4,0.222,752.9,01.17,0.508
2017-05-10 02:40:00,1537E-3,5C000400,-0724,0852,12736,027.4,045.4,0.222,752.9,01.17,0.508
2017-05-10 02:41:00,1526E-3,5C000400,-0724,0844,12382,027.4,045.4,0.222,752.9,01.17,0.508
2017-05-10 02:42:00,1676E-3,5C000400,-0724,0836,9861,027.4,045.4,0.222,752.9,01.17,0.508
2017-05-10 02:43:00,1644E-3,5C000410,-0724,0844,11421,027.4,045.5,0.222,752.9,01.17,0.508
2017-05-10 02:44:00,1652E-3,5C000400,-0724,0844,11445,027.4,045.4,0.222,752.9,01.17,0.508
2017-05-10 02:45:00,1611E-3,5C000400,-0724,0847,11365,027.4,045.4,0.222,752.9,01.17,0.508
2017-05-10 02:46:00,1722E-3,5C000400,-0724,0837,11265,027.4,045.4,0.222,752.9,01.17,0.508
2017-05-10 02:47:00,1712E-3,5C000400,-0724,0841,8819,027.4,045.4,0.222,752.9,01.17,0.508
2017-05-10 02:48:00,1495E-3,5C000400,-0724,0844,12590,027.4,045.4,0.222,752.9,01.17,0.508
2017-05-10 02:49:00,1717E-3,5C000410,-0724,0840,12765,027.4,045.4,0.223,752.9,01.17,0.508
2017-05-10 02:50:00,1654E-3,5C000400,-0724,0838,10958,027.4,045.4,0.222,752.9,01.17,0.508
2017-05-10 02:51:00,1614E-3,5C000400,-0724,0843,12326,027.3,045.4,0.222,752.9,01.17,0.508
2017-05-10 02:52:00,1642E-3,5C000400,-0724,0842,11283,027.4,045.4,0.222,752.9,01.17,0.508
2017-05-10 02:53:00,1483E-3,5C000400,-0724,0837,10954,027.3,045.4,0.222,752.9,01.17,0.508
2017-05-10 02:54:00,1688E-3,5C000400,-0724,0838,11099,027.3,045.4,0.223,752.9,01.17,0.508
2017-05-10 02:55:00,1674E-3,5C000400,-0724,0837,11108,027.3,045.4,0.222,752.9,01.17,0.508
2017-05-10 02:56:00,1679E-3,5C000400,-0724,0842,12330,027.3,045.4,0.222,752.9,01.17,0.508
2017-05-10 02:57:00,1552E-3,5C000400,-0724,0842,12558,027.3,045.4,0.222,752.9,01.17,0.508
2017-05-10 02:58:00,1755E-3,5C000400,-0724,0843,12590,027.3,045.4,0.222,752.9,01.17,0.508
2017-05-10 02:59:00,1709E-3,5C000410,-0724,0839,11322,027.3,045.4,0.223,753.0,01.17,0.508
2017-05-10 03:00:00,1768E-3,5C000400,-0724,0841,12357,027.3,045.5,0.222,753.0,01.17,0.508
2017-05-10 03:01:00,1677E-3,5C000400,-0724,0842,12337,027.3,045.5,0.222,753.0,01.17,0.508
2017-05-10 03:02:00,1645E-3,5C000400,-0724,0840,12257,027.3,045.4,0.222,753.0,01.17,0.508
2017-05-10 03:03:00,1619E-3,5C000400,-0724,0838,12177,027.3,045.4,0.222,753.0,01.17,0.508
2017-05-10 03:04:00,1688E-3,5C000400,-0724,0838,12385,027.3,045.5,0.223,753.0,01.17,0.508
2017-05-10 03:05:00,1624E-3,5C000400,-0724,0842,11045,027.3,045.5,0.222,753.0,01.17,0.508
2017-05-10 03:06:00,1730E-3,5C000400,-0724,0838,11025,027.3,045.4,0.223,752.9,01.17,0.508
2017-05-10 03:07:00,1534E-3,5C000400,-0724,0842,11288,027.3,045.4,0.222,753.0,01.17,0.508
2017-05-10 03:08:00,1635E-3,5C000400,-0724,0840,10877,027.3,045.4,0.223,752.9,01.17,0.508
2017-05-10 03:09:00,1711E-3,5C000400,-0724,0840,9963,027.3,045.4,0.222,752.9,01.17,0.508
2017-05-10 03:10:00,1599E-3,5C000400,-0724,0837,12159,027.3,045.4,0.223,752.9,01.17,0.508
2017-05-10 03:11:00,1619E-3,5C000410,-0724,0838,7643,027.3,045.4,0.223,752.9,01.17,0.508
2017-05-10 03:12:00,1601E-3,5C000400,-0724,0837,12388,027.3,045.4,0.223,752.9,01.17,0.508
2017-05-10 03:13:00,1775E-3,5C000400,-0724,0833,11207,027.3,045.4,0.223,752.9,01.17,0.508
2017-05-10 03:14:00,1576E-3,5C000400,-0724,0838,12540,027.3,045.4,0.223,753.0,01.17,0.508
2017-05-10 03:15:00,1738E-3,5C000400,-0724,0837,12204,027.3,045.4,0.222,753.0,01.17,0.508
2017-05-10 03:16:00,1602E-3,5C000400,-0724,0838,12358,027.3,045.4,0.223,753.0,01.17,0.508
2017-05-10 03:17:00,1608E-3,5C000400,-0724,0842,11235,027.3,045.4,0.222,753.0,01.17,0.508
2017-05-10 03:18:00,1655E-3,5C000400,-0724,0842,12246,027.3,045.4,0.222,753.0,01.17,0.508
2017-05-10 03:19:00,1503E-3,5C000400,-0724,0842,10148,027.3,045.5,0.223,753.0,01.17,0.508
2017-05-10 03:20:00,1522E-3,5C000400,-0724,0845,11479,027.3,045.5,0.222,753.0,01.17,0.508
2017-05-10 03:21:00,1653E-3,5C000400,-0724,0840,12461,027.3,045.4,0.223,753.0,01.17,0.508
2017-05-10 03:22:00,1664E-3,5C000400,-0724,0844,11362,027.3,045.4,0.222,753.0,01.17,0.508
2017-05-10 03:23:00,1664E-3,5C000410,-0724,0837,11276,027.2,045.4,0.223,753.0,01.17,0.508
2017-05-10 03:24:00,1523E-3,5C000400,-0724,0837,11028,027.2,045.4,0.222,753.0,01.17,0.508
2017-05-10 03:25:00,1520E-3,5C000400,-0724,0839,11141,027.2,045.4,0.223,753.0,01.17,0.508
2017-05-10 03:26:00,1597E-3,5C000400,-0724,0840,10154,027.2,045.4,0.223,753.0,01.17,0.508
2017-05-10 03:27:00,1693E-3,5C000400,-0724,0842,11191,027.1,045.4,0.222,753.1,01.17,0.508
2017-05-10 03:28:00,1575E-3,5C000400,-0724,0845,12776,027.1,045.4,0.223,753.1,01.17,0.508
2017-05-10 03:29:00,1472E-3,5C000400,-0724,0845,10243,027.1,045.4,0.223,753.1,01.17,0.508
2017-05-10 03:30:00,1511E-3,5C000400,-0724,0843,12606,027.1,045.4,0.222,753.1,01.17,0.508
2017-05-10 03:31:00,1532E-3,5C000400,-0724,0839,12637,027.2,045.4,0.223,753.1,01.17,0.508
2017-05-10 03:32:00,1659E-3,5C000400,-0724,0836,12186,027.1,045.4,0.222,753.1,01.17,0.508
2017-05-10 03:33:00,1782E-3,5C000400,-0724,0833,12143,027.2,045.4,0.223,753.1,01.17,0.508
2017-05-10 03:34:00,1719E-3,5C000400,-0724,0838,11243,027.2,045.4,0.223,753.1,01.17,0.508
2017-05-10 03:35:00,1565E-3,5C000400,-0724,0836,12062,027.1,045.5,0.223,753.1,01.17,0.508
2017-05-10 03:36:00,1540E-3,5C000400,-0724,0843,11273,027.1,045.4,0.223,753.1,01.17,0.508
2017-05-10 03:37:00,1796E-3,5C000400,-0724,0837,12383,027.1,045.4,0.223,753.1,01.17,0.508
2017-05-10 03:38:00,1764E-3,5C000400,-0724,0835,11948,027.1,045.4,0.223,753.1,01.17,0.508
2017-05-10 03:39:00,1592E-3,5C000400,-0724,0839,10045,027.0,045.4,0.223,753.1,01.17,0.508
2017-05-10 03:40:00,1722E-3,5C000400,-0724,0843,11535,027.0,045.4,0.223,753.1,01.17,0.508
2017-05-10 03:41:00,1775E-3,5C000400,-0724,0834,12163,027.0,045.4,0.223,753.1,01.17,0.508
2017-05-10 03:42:00,1767E-3,5C000400,-0724,0839,10109,027.0,045.4,0.223,753.2,01.17,0.508
2017-05-10 03:43:00,1555E-3,5C000410,-0724,0841,12702,027.1,045.4,0.223,753.2,01.17,0.508
2017-05-10 03:44:00,1567E-3,5C000400,-0724,0845,12510,027.1,045.4,0.223,753.2,01.17,0.508
2017-05-10 03:45:00,1545E-3,5C000410,-0724,0846,12815,027.0,045.5,0.223,753.2,01.17,0.508
2017-05-10 03:46:00,1561E-3,5C000410,-0724,0839,12278,027.1,045.4,0.223,753.2,01.17,0.508
2017-05-10 03:47:00,1567E-3,5C000400,-0724,0840,12461,027.1,045.4,0.223,753.2,01.17,0.508
2017-05-10 03:48:00,1651E-3,5C000410,-0724,0844,10191,027.1,045.4,0.223,753.2,01.17,0.508
2017-05-10 03:49:00,1431E-3,5C000400,-0724,0842,11451,027.0,045.4,0.223,753.2,01.17,0.508
2017-05-10 03:50:00,1635E-3,5C000400,-0724,0840,12271,027.0,045.4,0.223,753.2,01.17,0.508
2017-05-10 03:51:00,1587E-3,5C000400,-0724,0839,12523,027.1,045.4,0.223,753.2,01.17,0.508
2017-05-10 03:52:00,1554E-3,5C000400,-0724,0838,10950,027.0,045.4,0.223,753.2,01.17,0.508
2017-05-10 03:53:00,1559E-3,5C000400,-0724,0838,12380,027.0,045.4,0.223,753.2,01.17,0.508
2017-05-10 03:54:00,1613E-3,5C000400,-0724,0838,12396,027.1,045.4,0.223,753.2,01.17,0.508
2017-05-10 03:55:00,1669E-3,5C000400,-0724,0837,11085,027.1,045.4,0.223,753.2,01.17,0.508
2017-05-10 03:56:00,1702E-3,5C000400,-0724,0835,12255,027.1,045.4,0.223,753.2,01.17,0.508
2017-05-10 03:57:00,1622E-3,5C000400,-0724,0838,11130,027.1,045.4,0.223,753.2,01.17,0.508
2017-05-10 03:58:00,1538E-3,5C000400,-0724,0835,12279,027.1,045.4,0.223,753.2,01.17,0.508
2017-05-10 03:59:00,1642E-3,5C000410,-0724,0840,11384,027.1,045.4,0.223,753.2,01.17,0.508
2017-05-10 04:00:00,1555E-3,5C000400,-0724,0842,12530,027.1,045.4,0.223,753.2,01.17,0.508
2017-05-10 04:01:00,1462E-3,5C000400,-0724,0843,12504,027.0,045.4,0.223,753.2,01.17,0.508
2017-05-10 04:02:00,1693E-3,5C000400,-0724,0834,11977,027.0,045.4,0.223,753.2,01.17,0.508
2017-05-10 04:03:00,1565E-3,5C000400,-0724,0841,11343,027.0,045.4,0.223,753.2,01.17,0.508
2017-05-10 04:04:00,1822E-3,5C000400,-0724,0839,11027,027.0,045.4,0.223,753.2,01.17,0.508
2017-05-10 04:05:00,1672E-3,5C000400,-0724,0837,12259,027.0,045.4,0.223,753.2,01.17,0.508
2017-05-10 04:06:00,1644E-3,5C000400,-0724,0838,12168,027.0,045.4,0.223,753.2,01.17,0.508
2017-05-10 04:07:00,1586E-3,5C000400,-0724,0837,12289,027.0,045.4,0.223,753.2,01.17,0.508
2017-05-10 04:08:00,1611E-3,5C000400,-0724,0836,11221,027.0,045.4,0.223,753.2,01.17,0.508
2017-05-10 04:09:00,1647E-3,5C000400,-0724,0838,12278,027.0,045.4,0.223,753.3,01.17,0.508
2017-05-10 04:10:00,1650E-3,5C000400,-0724,0842,10265,026.9,045.4,0.223,753.2,01.17,0.508
2017-05-10 04:11:00,1706E-3,5C000400,-0724,0835,10998,026.9,045.4,0.223,753.2,01.17,0.508
2017-05-10 04:12:00,1581E-3,5C000400,-0724,0837,11094,026.9,045.4,0.224,753.2,01.17,0.508
2017-05-10 04:13:00,1615E-3,5C000400,-0724,0839,10897,026.9,045.4,0.224,753.2,01.17,0.508
2017-05-10 04:14:00,1661E-3,5C000400,-0724,0838,12447,026.9,045.4,0.223,753.3,01.17,0.508
2017-05-10 04:15:00,1774E-3,5C000400,-0724,0835,12160,026.9,045.4,0.223,753.3,01.17,0.508
2017-05-10 04:16:00,1778E-3,5C000410,-0724,0836,9764,026.9,045.4,0.223,753.3,01.17,0.508
2017-05-10 04:17:00,1616E-3,5C000400,-0724,0836,12311,026.9,045.4,0.223,753.3,01.17,0.508
2017-05-10 04:18:00,1705E-3,5C000400,-0724,0838,12465,026.9,045.4,0.223,753.3,01.17,0.508
2017-05-10 04:19:00,1639E-3,5C000400,-0724,0837,11206,026.9,045.4,0.223,753.3,01.17,0.508
2017-05-10 04:20:00,1809E-3,5C000400,-0724,0841,12614,026.9,045.4,0.223,753.3,01.17,0.508